GW3496 Weather Reports


time (UTC)temp
F
wind
direction
speed
knots
gust
knots
rain 1hr
in
rain 24hr
in
rain mn
in
humidity
%
barometer
mb
20260904014544 85 159 0.0 0.9 0.00 0.00 0.00 84 1011.9
20260904013042 86 184 0.0 0.0 0.00 0.00 0.00 83 1012.1
20260904011543 87 145 0.0 0.0 0.00 0.00 0.00 81 1012.2
20260904010050 87 163 0.0 0.0 0.00 0.00 0.00 79 1012.7
20260904004543 87 202 0.0 0.0 0.00 0.00 0.00 78 1012.9
20260904003039 88 202 0.0 0.0 0.00 0.00 0.00 78 1013.0
20260904001543 88 234 0.0 0.0 0.00 0.00 0.00 77 1012.9
20260904000041 88 188 0.0 0.0 0.00 0.00 0.00 76 1012.5
20260903234545 88 189 0.0 4.3 0.00 0.00 0.00 76 1012.2
20260903233046 89 269 0.0 0.0 0.00 0.00 0.00 75 1012.5
20260903231539 89 228 0.0 4.3 0.00 0.00 0.00 74 1012.2
20260903230047 89 264 1.7 4.3 0.00 0.00 0.00 74 1012.3
20260903224545 90 269 2.6 7.0 0.00 0.00 0.00 72 1012.0
20260903223047 90 263 2.6 8.7 0.00 0.00 0.00 71 1011.8
20260903221549 90 227 6.1 9.6 0.00 0.00 0.00 71 1011.9
20260903220042 90 210 5.2 8.7 0.00 0.00 0.00 69 1012.2
20260903214538 90 212 5.2 7.8 0.00 0.00 0.00 69 1012.2
20260903213043 90 223 2.6 8.7 0.00 0.00 0.00 70 1012.4
20260903211547 89 157 1.7 7.8 0.00 0.00 0.00 71 1012.7
20260903210054 89 227 4.3 10.4 0.00 0.00 0.00 69 1012.7
20260903204543 89 228 4.3 7.8 0.00 0.00 0.00 69 1012.7
20260903203049 90 263 3.5 7.0 0.00 0.00 0.00 67 1012.9
20260903201542 89 213 3.5 8.7 0.00 0.00 0.00 68 1013.2
20260903200051 89 298 3.5 8.7 0.00 0.00 0.00 69 1013.4
20260903194545 88 284 0.9 7.0 0.00 0.00 0.00 70 1013.4
20260903193048 89 293 2.6 6.1 0.00 0.00 0.00 69 1014.0
20260903191542 87 247 2.6 7.0 0.00 0.00 0.00 70 1014.1
20260903190043 88 254 2.6 7.0 0.00 0.00 0.00 71 1014.0
20260903184548 87 253 3.5 7.0 0.00 0.00 0.00 72 1014.1
20260903183044 87 276 0.9 6.1 0.00 0.00 0.00 72 1014.2
20260903181542 87 319 0.9 3.5 0.00 0.00 0.00 71 1014.6
20260903180106 88 311 1.7 5.2 0.00 0.00 0.00 71 1014.7
20260903174544 87 97 0.9 3.5 0.00 0.00 0.00 71 1014.8
20260903173043 87 318 3.5 7.8 0.00 0.00 0.00 72 1015.4
20260903171549 86 301 0.9 7.0 0.00 0.00 0.00 75 1015.5
20260903170049 84 11 0.0 5.2 0.00 0.00 0.00 77 1015.9
20260903164558 84 200 1.7 7.0 0.00 0.00 0.00 77 1015.6
20260903163046 83 355 0.0 0.0 0.00 0.00 0.00 78 1015.7
20260903161543 81 186 0.0 5.2 0.00 0.00 0.00 82 1016.1
20260903160047 81 69 1.7 5.2 0.00 0.00 0.00 82 1015.9
20260903154552 79 165 0.0 4.3 0.00 0.00 0.00 87 1016.4
20260903153052 78 18 0.0 4.3 0.00 0.00 0.00 89 1016.1
20260903151553 77 360 0.0 4.3 0.00 0.00 0.00 90 1016.1
20260903150048 77 41 0.0 0.0 0.00 0.00 0.00 91 1015.8
20260903144556 77 123 1.7 3.5 0.00 0.00 0.00 92 1015.7
20260903143049 76 103 0.9 3.5 0.00 0.00 0.00 93 1015.7
20260903141549 76 70 0.9 4.3 0.00 0.00 0.00 93 1015.6
20260903140055 75 76 0.9 5.2 0.00 0.00 0.00 94 1015.8
20260903134553 75 360 3.5 7.0 0.00 0.00 0.00 94 1015.5
20260903133053 75 37 4.3 8.7 0.00 0.00 0.00 94 1015.6
20260903131551 75 28 4.3 8.7 0.00 0.00 0.00 94 1015.9
20260903130105 75 18 3.5 9.6 0.00 0.00 0.00 94 1016.0
20260903124541 74 349 5.2 9.6 0.00 0.00 0.00 94 1016.1
20260903123050 75 328 1.7 9.6 0.00 0.00 0.00 94 1016.2
20260903121548 75 28 1.7 6.1 0.00 0.00 0.00 94 1015.7
20260903120045 75 261 0.0 0.0 0.00 0.00 0.00 94 1015.3
20260903114553 74 261 0.0 0.0 0.00 0.00 0.00 94 1015.1
20260903113051 74 261 0.0 0.0 0.00 0.00 0.00 94 1014.9
20260903111559 74 261 0.0 3.5 0.00 0.00 0.00 94 1014.7
20260903110110 74 178 0.0 0.0 0.00 0.00 0.00 94 1014.4
20260903104541 74 209 0.0 1.7 0.00 0.00 0.00 94 1014.3
20260903103051 74 165 1.7 3.5 0.00 0.00 0.00 93 1014.2
20260903101552 74 182 1.7 4.3 0.00 0.00 0.00 93 1014.1
20260903100059 74 187 2.6 4.3 0.00 0.00 0.00 93 1014.0
20260903094555 74 113 0.0 0.0 0.00 0.00 0.00 93 1014.3
20260903093049 74 90 0.0 1.7 0.00 0.00 0.00 93 1014.5
20260903091554 74 130 0.0 0.0 0.00 0.00 0.00 93 1014.4
20260903090053 74 320 0.0 0.0 0.00 0.00 0.00 93 1014.4
20260903084552 74 44 0.0 1.7 0.00 0.00 0.00 92 1014.3
20260903083048 74 145 1.7 3.5 0.00 0.00 0.00 92 1014.1
20260903081557 74 113 0.9 4.3 0.00 0.00 0.00 92 1014.2
20260903080054 74 157 0.0 0.0 0.00 0.00 0.00 92 1013.8
20260903074605 74 117 0.0 1.7 0.00 0.00 0.00 92 1014.3
20260903073050 74 209 1.7 4.3 0.00 0.00 0.00 91 1013.8
20260903071557 74 125 1.7 5.2 0.00 0.00 0.00 91 1013.8
20260903070056 75 155 1.7 5.2 0.00 0.00 0.00 90 1013.8
20260903064603 75 170 2.6 3.5 0.00 0.00 0.00 90 1014.0
20260903063050 75 133 0.0 0.0 0.00 0.00 0.00 90 1014.2
20260903061552 75 120 0.0 3.5 0.00 0.00 0.00 89 1014.4
20260903054618 76 119 0.0 0.0 0.00 0.00 0.00 88 1015.0
20260903053118 76 103 0.0 3.5 0.00 0.00 0.00 88 1015.0
20260903051603 75 129 0.0 2.6 0.00 0.00 0.00 89 1014.9
20260903050129 75 130 0.0 0.0 0.00 0.00 0.00 90 1015.0
20260903044607 74 182 0.0 0.0 0.00 0.00 0.00 91 1015.3
20260903043103 74 20 0.0 0.0 0.00 0.00 0.00 91 1015.4
20260903040039 74 20 0.0 3.5 0.00 0.00 0.00 90 1015.1
20260903034545 75 43 2.6 4.3 0.00 0.00 0.00 90 1014.9
20260903033043 76 29 0.0 0.0 0.00 0.00 0.00 90 1014.8
20260903031542 76 32 0.0 0.0 0.00 0.00 0.00 89 1014.7
20260903030045 76 355 0.0 0.0 0.00 0.00 0.00 87 1014.7
20260903024547 77 275 0.0 4.3 0.00 0.00 0.00 87 1014.6
20260903023043 77 273 0.0 2.6 0.00 0.00 0.00 86 1014.7
20260903021553 77 273 0.0 0.0 0.00 0.00 0.00 85 1014.7